RH
34 28 32 44 41 53 84 71 74 72 64 79 59 50 51 46 37 34 32 30 28 24 31 25 26 42 29 18 19 20 20 22 16 17 22 24 29 35 33 30 29 22 21
33 32 28 43 43 40 41 65 83 91 86 71 69 73 58 60 41 35 32 30 28 22 25 30 28 26 32 25 18 19 17 19 19 17 18 17 18 17 16 16 17 18 19
40 38 32 42 54 48 44 40 44 75 92 99 86 77 82 83 65 48 43 35 29 25 20 27 29 29 25 22 20 18 19 18 20 19 19 19 17 16 18 18 18 17 17
49 45 41 32 43 63 46 53 53 51 66 91 98 95 92 75 69 62 56 46 35 27 24 23 32 32 31 22 20 21 20 21 19 21 25 25 23 20 17 18 17 16 17
52 52 52 43 39 48 64 51 56 60 52 45 81 97 100 93 85 67 59 52 49 45 34 37 33 32 32 34 22 20 24 24 25 27 26 24 27 25 21 20 19 18 20
56 56 58 55 52 48 52 49 48 63 63 61 50 82 94 97 92 84 65 57 53 50 50 50 50 49 47 41 37 30 27 29 30 31 31 35 34 33 24 22 22 19 18
74 62 52 61 62 57 51 46 41 41 56 58 65 50 59 81 80 79 84 81 67 58 51 46 46 45 44 43 40 38 40 42 42 41 41 45 42 36 34 32 29 28 26
98 92 70 65 77 52 52 50 48 47 44 50 47 64 53 53 66 62 55 57 64 65 62 57 50 49 48 44 40 37 32 34 37 38 36 40 40 38 41 48 40 34 32
100 100 90 79 77 71 61 56 63 59 52 54 51 62 73 60 52 50 52 53 56 52 53 52 55 50 48 48 43 38 33 33 32 30 33 29 31 31 34 32 31 37 38
94 95 100 99 93 86 76 64 64 67 70 62 65 74 81 72 65 60 58 54 52 57 62 66 64 57 57 49 42 41 39 35 33 30 30 27 25 25 26 30 32 34 31
100 100 100 100 80 82 86 82 70 69 68 69 90 71 61 69 72 63 51 51 51 51 51 50 51 57 60 56 52 45 42 38 33 30 27 26 25 23 26 28 29 30 30
99 85 98 100 100 100 98 82 83 96 86 79 74 88 94 70 53 64 62 63 58 53 52 49 45 47 47 45 40 36 38 35 29 27 29 26 22 23 22 22 22 20 22
47 71 100 100 100 100 100 99 90 86 79 92 88 83 97 98 87 65 71 89 84 79 69 87 79 55 51 61 50 43 44 46 38 42 28 26 28 21 20 18 16 19 23
32 43 68 86 100 100 100 100 100 96 98 82 80 88 90 100 100 99 93 95 97 99 100 100 94 74 66 52 53 39 41 44 40 53 46 41 38 28 31 24 20 23 20
35 42 52 71 79 92 100 100 100 100 99 99 96 89 83 99 90 81 84 88 96 82 83 84 72 91 68 62 60 53 45 47 51 55 54 56 49 46 37 36 39 41 30
22 47 98 97 93 92 100 100 100 100 100 100 100 100 94 100 100 100 93 93 92 97 85 72 80 53 55 57 40 39 38 45 51 51 54 56 52 59 42 44 41 47 35
18 16 16 21 61 100 100 100 100 100 100 100 100 100 100 89 93 96 76 83 71 100 99 99 100 95 57 48 55 30 30 42 44 45 45 43 42 36 40 51 56 45 48
15 14 12 12 12 15 29 34 85 90 97 100 100 100 100 100 100 100 100 94 67 83 100 100 100 97 95 76 86 72 56 63 68 59 51 46 47 60 51 33 38 43 68
17 18 18 18 16 15 13 13 14 14 19 55 84 94 77 79 88 90 100 100 100 100 100 100 100 100 100 100 100 100 100 96 95 85 69 92 85 75 91 86 85 62 53
26 26 27 29 29 30 29 28 27 26 24 24 23 28 33 30 20 13 19 52 68 70 79 78 80 84 87 96 98 90 84 81 90 96 98 93 87 81 75 76 74 74 70
34 33 34 34 34 34 36 37 37 35 35 36 37 37 34 31 30 30 27 26 23 21 20 21 26 33 34 38 38 37 36 31 31 41 54 62 62 60 53 54 39 28 28
26 28 31 32 32 32 31 30 30 30 30 30 32 34 36 38 40 43 45 47 50 50 50 46 42 38 34 27 25 23 23 24 25 26 26 26 28 26 24 23 20 19 19
34 35 35 32 30 31 31 32 33 35 37 36 34 34 35 35 36 40 43 45 49 52 55 61 65 64 62 59 56 51 40 36 35 29 31 30 33 34 31 30 30 28 23
44 44 42 40 38 38 35 33 29 28 29 32 34 36 35 34 36 38 41 45 48 51 59 65 69 71 71 73 76 77 71 62 52 55 57 45 39 34 35 37 38 38 33
20 21 21 22 26 34 36 41 39 36 32 32 34 35 33 30 29 32 34 36 37 42 48 54 64 76 84 90 92 89 84 81 74 67 66 57 55 48 50 46 43 40 39
22 22 25 26 28 29 30 32 35 38 36 31 27 28 30 32 30 27 27 28 30 32 35 37 43 54 63 69 76 82 86 93 94 93 88 87 91 78 81 84 86 84 64
Wind_Speed
22 20 20 21 22 23 24 28 29 30 30 31 34 35 33 33 33 33 34 32 32 29 26 25 25 25 26 25 27 27 26 23 23 26 30 32 31 32 32 32 31 28 28
26 25 23 24 26 27 26 29 30 31 32 33 34 34 35 35 36 36 37 36 33 32 30 28 26 26 29 27 29 28 27 26 24 24 24 27 29 32 34 33 32 30 29
30 30 29 28 28 29 29 30 32 34 35 36 36 38 37 36 37 38 38 38 36 35 35 34 31 30 29 31 32 29 28 28 27 28 26 25 25 26 29 31 32 33 31
35 35 35 34 34 33 33 31 32 33 36 39 40 40 39 41 40 40 41 41 39 39 39 40 40 36 33 33 36 35 34 33 31 31 32 30 30 29 31 31 33 34 32
40 39 39 39 38 37 36 37 36 36 37 39 42 42 42 42 41 41 42 42 42 41 42 42 42 43 41 40 39 40 39 37 37 40 39 39 39 36 37 36 36 36 35
45 44 42 43 42 42 41 41 40 41 40 39 43 45 45 45 45 45 44 44 43 43 43 44 43 41 40 41 43 44 45 45 45 47 44 45 43 42 41 44 42 42 42
50 49 46 48 45 46 45 45 43 44 45 42 44 46 48 49 49 49 48 46 45 45 46 47 46 45 46 45 42 41 45 47 48 49 49 48 49 46 44 44 44 47 47
51 51 51 51 50 52 49 48 48 45 47 48 46 49 51 52 52 51 51 51 50 50 50 49 48 48 48 47 47 47 44 47 48 49 48 47 46 48 46 47 49 50 50
58 54 55 56 53 54 54 53 52 51 50 49 49 49 52 54 54 55 54 54 53 54 54 53 53 54 54 53 53 52 53 53 52 51 53 51 50 51 53 53 51 51 51
63 61 61 60 58 57 58 58 59 56 56 54 52 53 54 54 55 56 58 58 58 59 59 59 59 60 60 61 60 61 60 59 59 57 57 56 55 53 54 53 54 54 55
63 62 62 63 63 61 62 61 62 62 61 63 61 60 59 60 61 61 61 62 63 65 65 65 66 67 68 69 69 69 66 66 64 63 63 61 62 61 59 59 58 59 58
68 66 67 66 67 66 67 68 67 66 66 66 68 68 69 68 68 69 70 71 70 69 69 69 70 71 73 75 74 73 71 71 69 70 69 68 66 68 69 69 65 64 62
68 72 71 70 72 72 70 72 72 73 72 71 72 73 74 75 75 75 76 77 77 77 77 77 77 77 76 76 77 77 77 76 75 78 77 73 75 71 72 72 70 71 71
70 70 73 75 74 75 75 75 74 76 77 77 78 78 80 79 80 80 82 83 82 84 85 85 85 83 82 83 84 83 83 82 81 84 82 81 81 81 80 78 77 79 77
75 74 74 77 78 81 81 82 80 80 83 84 83 83 83 84 85 85 87 89 89 90 91 90 91 88 90 89 91 91 90 89 88 89 89 88 85 87 86 84 85 84 84
76 78 82 84 86 87 89 90 88 87 89 89 89 90 90 90 91 92 92 94 95 97 97 98 95 94 96 95 97 97 98 98 96 94 96 93 92 93 95 93 90 89 89
72 77 80 84 89 91 92 94 93 91 92 92 94 94 97 99 100 100 100 102 105 103 102 102 103 103 104 105 102 104 105 105 102 101 100 103 102 101 102 101 96 97 95
55 61 67 72 78 82 86 91 95 97 99 102 99 98 98 100 104 105 106 106 108 109 108 108 109 110 109 111 112 112 112 111 110 107 106 107 107 104 104 103 102 102 102
50 52 54 57 60 66 71 74 75 79 84 89 97 101 103 105 107 108 110 110 109 110 111 112 111 111 110 112 112 111 110 112 114 116 114 110 107 108 108 107 108 105 107
53 55 56 57 58 59 60 62 64 66 68 71 75 79 85 91 98 105 106 109 110 110 112 110 111 114 117 119 116 115 114 113 113 115 114 114 114 114 113 113 114 111 111
61 63 64 65 65 66 67 68 69 71 72 73 74 75 76 78 80 81 84 85 88 90 93 97 100 103 103 105 104 107 109 108 104 105 108 108 108 106 106 109 109 105 105
69 71 72 73 74 75 77 78 79 80 81 82 83 83 84 84 85 85 85 84 84 84 84 85 87 88 89 91 92 94 95 97 97 97 98 97 97 97 97 96 95 94 91
74 75 76 79 83 85 87 87 88 89 89 90 90 90 91 92 92 92 91 90 90 90 90 90 89 89 89 90 91 92 91 90 91 92 95 96 98 99 97 95 94 93 94
77 80 82 84 86 88 92 95 97 98 99 100 100 101 101 102 102 101 101 100 99 98 98 98 98 98 97 96 95 95 95 95 96 95 93 92 91 91 91 93 93 92 90
75 76 80 86 91 94 96 100 103 105 107 108 108 109 110 110 109 109 109 110 108 107 106 106 106 106 105 105 104 103 102 100 99 98 98 98 96 94 91 88 86 85 83
78 77 76 76 81 89 96 102 107 112 114 116 117 119 119 118 118 118 118 117 116 115 115 115 115 114 113 113 112 111 110 107 106 104 102 101 101 99 96 94 92 90 90
Wind_Direction
236 237 230 225 221 219 215 215 217 221 224 222 219 222 223 224 224 227 231 230 232 230 230 233 237 238 241 238 235 235 239 247 251 247 247 250 254 255 256 260 262 264 268
240 238 235 223 224 224 226 228 227 229 226 228 229 228 230 230 228 229 231 234 236 236 233 234 236 238 240 240 239 237 236 238 239 245 248 248 253 257 259 263 268 270 271
235 236 234 229 228 229 226 230 233 234 232 232 232 231 231 232 234 235 236 237 239 240 241 238 237 240 245 237 236 238 242 245 243 245 252 254 254 254 257 258 261 263 265
231 235 233 231 228 230 229 224 229 234 237 237 238 235 235 235 235 235 238 240 240 242 243 242 242 244 245 242 238 237 241 246 248 251 254 259 261 262 261 259 261 260 260
235 233 232 232 232 231 232 235 237 237 239 240 239 237 236 238 238 236 238 239 242 242 244 246 247 248 248 248 245 244 248 253 257 259 261 264 264 263 261 259 257 257 258
237 237 233 233 234 234 234 236 240 243 243 242 242 241 241 239 239 238 238 240 241 241 241 243 245 247 249 249 248 248 253 256 257 261 262 264 267 269 262 257 258 257 258
241 239 239 237 235 237 238 240 240 242 241 244 244 245 246 246 245 244 244 244 242 243 244 246 247 247 248 248 249 251 255 256 257 261 263 263 264 266 267 266 263 262 261
241 243 242 242 240 236 239 241 243 245 245 243 247 246 247 248 249 250 250 250 248 248 248 248 248 250 250 250 253 252 255 257 260 261 263 262 264 263 263 266 265 265 266
241 248 245 246 243 243 242 242 243 245 248 249 246 247 248 249 252 253 254 256 255 253 251 249 252 254 254 258 260 262 260 259 262 262 261 266 264 265 264 267 267 266 267
240 243 246 248 250 246 245 246 246 245 246 249 250 249 249 251 252 254 254 256 257 257 256 256 257 256 257 261 263 265 265 265 266 264 263 265 265 268 268 267 269 267 267
247 249 250 250 250 250 250 248 249 249 248 249 250 252 253 252 254 255 257 258 259 260 262 262 263 263 262 262 263 265 267 267 268 267 266 265 266 267 269 270 268 269 270
250 250 250 252 254 254 255 252 248 251 252 252 253 251 253 255 256 259 260 260 262 262 262 262 262 264 264 264 265 266 266 267 268 269 268 270 270 269 273 273 270 271 273
248 248 249 254 257 258 258 255 255 253 252 252 254 255 256 256 257 258 260 262 265 265 266 267 267 266 268 269 269 269 268 269 269 270 270 270 270 269 274 273 276 276 276
248 250 250 251 253 256 260 259 258 257 256 256 256 255 257 258 259 260 262 263 263 266 269 269 270 268 269 270 272 271 270 270 270 273 273 274 275 275 276 277 278 277 278
250 251 251 252 255 255 257 257 257 259 258 259 259 259 261 260 261 261 262 263 264 265 267 267 266 268 269 270 272 274 273 272 273 274 275 276 276 277 276 278 277 277 278
254 255 254 254 255 254 254 256 257 257 257 259 260 261 261 261 261 262 262 262 264 264 264 265 265 266 268 268 269 271 272 272 271 272 273 274 274 276 277 276 274 276 278
256 257 257 259 258 257 256 255 256 256 258 258 258 259 261 261 262 262 261 262 263 265 265 264 266 266 266 265 266 267 268 268 269 269 270 271 271 271 275 274 273 274 275
259 259 258 258 258 258 259 259 259 259 260 258 258 258 258 259 260 262 261 260 261 262 263 264 265 265 265 267 267 267 267 267 267 267 267 268 269 269 269 270 271 273 275
263 262 261 259 258 257 258 259 259 260 261 260 260 260 261 261 261 262 261 261 260 261 261 261 262 262 262 263 263 264 265 266 266 266 266 266 266 266 267 268 269 268 271
265 265 264 264 263 263 261 261 260 260 260 260 261 261 262 263 263 263 264 265 265 264 264 265 265 265 264 265 266 267 268 268 266 267 266 266 266 266 268 268 269 269 269
266 265 263 262 261 262 261 262 262 262 261 262 261 261 261 260 260 261 262 264 265 265 265 266 266 265 265 265 265 266 267 267 267 267 268 268 269 268 267 268 269 269 269
270 268 267 265 264 263 263 262 261 261 260 260 259 259 259 259 259 259 259 260 261 262 264 265 266 266 266 266 266 265 264 264 264 263 264 264 265 265 265 266 266 267 266
273 272 273 272 271 268 267 266 264 263 263 262 261 260 260 260 259 259 259 260 260 261 261 262 262 263 263 263 264 264 263 264 265 265 265 265 265 266 266 267 266 268 269
273 273 273 273 273 273 272 270 269 267 266 264 263 262 262 261 260 260 259 259 258 259 260 260 261 262 262 262 262 263 263 263 263 264 265 264 264 264 265 265 266 266 266
274 275 275 275 273 272 272 271 270 270 268 267 266 265 263 261 260 260 260 259 258 258 258 259 259 259 259 260 261 262 262 261 261 262 263 264 264 264 264 264 264 264 265
276 276 277 276 276 273 272 270 269 268 267 267 266 265 264 263 262 262 261 260 259 258 259 259 259 259 259 259 259 259 260 261 262 261 261 262 263 261 262 263 264 264 265